Flag for U.S.A. Weather past 2 weeks in Rancho Cucamonga, California, U.S.A.

Now
55 °F

Clear.


Feels Like: 53 °F
Forecast: 49 / 77 °F
Wind: 7 mph from Northwest

Location: Ontario International Airport

Current Time: Mar 5, 2015 at 11:47:49 PM

Latest Report: Mar 5, 2015 at 10:53 PM


Visibility: 10 mi

Pressure: 30.15 "Hg

Humidity: 39%

Dew point: 30 °F

Location of Rancho CucamongaLocation

Historic Weather in Rancho Cucamonga — Graph

°F

Rancho Cucamonga temperature yesterday

Maximum temperature yesterday: 70 °F (at 2:53 PM)
Minimum temperature yesterday: 45 °F (at 4:53 AM)
Average temperature yesterday: 58 °F

Past Weeks' High & Low Weather Summary

 TemperatureHumidityPressure
High77 °F (Feb 19, 2:53 PM)97% (Feb 19, 7:53 AM)30.27 "Hg (Feb 19, 7:53 AM)
Low42 °F (Feb 24, 5:53 AM)14% (Mar 5, 3:53 PM)29.74 "Hg (Feb 27, 6:53 PM)
Average56 °F65%29.97 "Hg
* Reported Feb 18 10:53 PM — Mar 5 10:53 PM, Rancho Cucamonga, Weather by CustomWeather, © 2015

Note: Actual official high and low records may vary slightly from our data, if they occured in-between our weather recording intervals... More about our weather records

Advertising

Rancho Cucamonga weather history for previous 24 hours

 ConditionsComfort  
Time TempWeatherWind HumidityBarometerVisibility
10:53 PM
Thu, Mar 5
55 °FClear.7 mph39%30.15 "Hg10 mi
9:53 PM58 °FClear.7 mph38%30.16 "Hg10 mi
8:53 PM59 °FClear.6 mph33%30.16 "Hg10 mi
7:53 PM62 °FClear.No wind30%30.17 "Hg10 mi
6:53 PM63 °FClear.6 mph30%30.17 "Hg10 mi
5:53 PM66 °FClear.6 mph23%30.16 "Hg10 mi
4:53 PM71 °FSunny.7 mph19%30.15 "Hg10 mi
3:53 PM74 °FPassing clouds.6 mph14%30.15 "Hg10 mi
2:53 PM74 °FPassing clouds.6 mph15%30.16 "Hg10 mi
1:53 PM73 °FPassing clouds.No wind15%30.18 "Hg10 mi
12:53 PM71 °FPassing clouds.5 mph16%30.20 "Hg10 mi
11:53 AM70 °FPassing clouds.3 mph16%30.24 "Hg10 mi
10:53 AM67 °FPassing clouds.6 mph21%30.25 "Hg10 mi
9:53 AM64 °FScattered clouds.3 mph25%30.26 "Hg10 mi
8:53 AM58 °FPassing clouds.3 mph38%30.27 "Hg10 mi
7:53 AM52 °FPassing clouds.No wind55%30.26 "Hg10 mi
6:53 AM46 °FPassing clouds.No wind63%30.24 "Hg10 mi
5:53 AM46 °FPassing clouds.5 mph58%30.21 "Hg10 mi
4:53 AM46 °FPassing clouds.5 mph63%30.19 "Hg10 mi
3:53 AM48 °FPassing clouds.5 mph59%30.16 "Hg10 mi
2:53 AM49 °FPassing clouds.3 mph55%30.16 "Hg10 mi
1:53 AM49 °FPassing clouds.No wind57%30.17 "Hg10 mi
12:53 AM50 °FPassing clouds.5 mph61%30.16 "Hg10 mi
11:53 PM
Wed, Mar 4
50 °FPassing clouds.No wind61%30.15 "Hg10 mi
Weather by CustomWeather, © 2015

See weather overviewHow to use our weather pages